Location: Sungai Igah
(2.7333°N, 114.2500°E)
Time: 20:56:44
(UTC+00:00)

SL-08 R/B - Pass Details

Date: 14 June 2021
Orbit: 674 x 738 km, 98.5° (Epoch: 26 July)

Event Time Altitude Azimuth Distance (km) Brightness Sun altitude
Exits shadow 20:40:27 31° 310° (NW) 1,171 4.2 -22.3°
Drops below altitude 10° 20:43:07 10° 331° (NNW) 2,103 5.7 -21.7°
Sets 20:45:25 0° 338° (NNW) 3,020 6.6 -21.2°
